This is the latest recevied weather packets stored in our database for station/object KN6ETB-1. If no packets are shown the sender has not sent any weather packets the latest 10 day(s).
| Time | Temp. | Humidity | Pressure | Rain* | Wind** | Luminosity | Snow |
|---|---|---|---|---|---|---|---|
| 1777963169 | 11.67° C | 95% | 1012 hPa | 3.05 mm | - | 0 W/m² | - |
| 1777962865 | 11.67° C | 95% | 1012.3 hPa | 3.56 mm | - | 0 W/m² | - |
| 1777962562 | 11.67° C | 95% | 1012.6 hPa | 3.05 mm | - | 0 W/m² | - |
| 1777962260 | 11.67° C | 95% | 1012.4 hPa | 3.05 mm | - | 0 W/m² | - |
| 1777961956 | 11.67° C | 95% | 1012.4 hPa | 1.78 mm | - | 0 W/m² | - |
| 1777961654 | 11.67° C | 95% | 1012.5 hPa | 3.05 mm | - | 0 W/m² | - |
| 1777961351 | 11.67° C | 95% | 1012.7 hPa | 1.27 mm | - | 0 W/m² | - |
| 1777961048 | 11.67° C | 95% | 1012.5 hPa | 0 mm | - | 0 W/m² | - |
| 1777960744 | 11.67° C | 95% | 1012.1 hPa | 0 mm | - | 0 W/m² | - |
| 1777960440 | 11.67° C | 95% | 1012.3 hPa | 1.78 mm | - | 0 W/m² | - |
| 1777960137 | 11.67° C | 95% | 1012.1 hPa | 1.78 mm | - | 0 W/m² | - |
| 1777959835 | 11.67° C | 95% | 1012 hPa | 0 mm | - | 0 W/m² | - |
| 1777959533 | 11.67° C | 95% | 1011.9 hPa | 0 mm | - | 0 W/m² | - |
| 1777959230 | 11.67° C | 95% | 1011.9 hPa | 0 mm | - | 0 W/m² | - |
| 1777958927 | 12.22° C | 95% | 1012.3 hPa | 1.27 mm | - | 0 W/m² | - |
| 1777958623 | 12.22° C | 94% | 1012.5 hPa | 3.05 mm | - | 0 W/m² | - |
| 1777958320 | 12.22° C | 94% | 1012.2 hPa | 4.83 mm | - | 0 W/m² | - |
| 1777958018 | 12.22° C | 94% | 1012.1 hPa | 4.32 mm | - | 0 W/m² | - |
| 1777957716 | 12.22° C | 94% | 1012.1 hPa | 3.05 mm | - | 0 W/m² | - |
| 1777957414 | 12.22° C | 94% | 1012.3 hPa | 1.27 mm | - | 0 W/m² | - |
| 1777957110 | 12.22° C | 94% | 1012.4 hPa | 1.78 mm | - | 0 W/m² | - |
| 1777956807 | 12.22° C | 94% | 1012.3 hPa | 3.56 mm | - | 0 W/m² | - |
| 1777956504 | 12.22° C | 94% | 1011.9 hPa | 1.78 mm | - | 0 W/m² | - |
| 1777956201 | 12.22° C | 94% | 1012.2 hPa | 3.05 mm | - | 0 W/m² | - |
| 1777955897 | 12.22° C | 94% | 1012.1 hPa | 1.27 mm | - | 0 W/m² | - |
* Rain latest hour (hover to see other rain measurements)
** Current wind speed in m/s (hover to see current wind gust speed)